Powrót do katalogu

FENGYUN 1C DEB

AktywnyPO
NORAD 29833·DEBRIS·🇨🇳 China

Wystrzelony May 10, 1999 z Taiyuan Satellite Launch Center

Loading…

Następne Przeloty (najbliższe 24 godziny)

TLE

ŚwieżeSource: Space-Track

Epoka: Sep 14, 2026, 00:49 UTC

1 29833U 99025EB  26257.03446425  .00008780  00000-0  71810-3 0  9993
2 29833  99.0762 287.2783 0082009  93.3176 267.7428 14.97013442 46837

Śledź FENGYUN 1C DEB w czasie rzeczywistym z AllMySat

Download on the App Store